Location: Cambroso
(45.2833°N, 12.0850°E)
Time: 19:07:24
(UTC+00:00)

Okean-O - Pass Details

Date: 21 January 2021
Orbit: 638 x 641 km, 98.2° (Epoch: 28 February)

Event Time Altitude Azimuth Distance (km) Brightness Sun altitude
Rises 18:29:28 0° 188° (S) 2,932 6.2 -25.4°
Reaches altitude 10° 18:31:49 10° 197° (SSW) 2,029 5.4 -25.8°
Maximum altitude 18:35:50 34° 263° (W) 1,061 4.3 -26.5°
Drops below altitude 10° 18:39:54 10° 329° (NNW) 2,044 5.5 -27.2°
Sets 18:42:18 0° 338° (NNW) 2,958 6.3 -27.7°
